STARLINK-1439 (45716 NORAD) Tracking and Keplerian Element Data

This shows tracking and keplerian element data for the satellite.

Feedback or suggestion? Click here.




ElementValue
Catalog45716
NameSTARLINK-1439
Epoch Orbit1120
Epoch Day218.91667824
Epoch Year2020
RAAN217.5223
Inclination52.999
Eccentricity0.0008058
Argument of Perigee336.6516
Mean Anonmoly328.8417
Mean Motion15.62736167
Decay Rate0.00055433
L11 45716U 20035BM 20218.91667824 .00055433 00000-0 60666-3 0 9996
L22 45716 52.9990 217.5223 0008058 336.6516 328.8417 15.62736167 11203

Live tracking and technical data element details for STARLINK-1439 (NORAD 45716). STARLINK-1439 can be tracked NOW for your location showing map with azimuth and elevation plus other details from your city location.

Track the satellite on the map from your city or location and see movement details for azimuth, elevation, latitude, longitude, range, height, and movement on the map or in text.







IsCatalogInMostPopularTable: catalog: 45716, numindb: 12
Update: records affected: 1



GetName: 45716 STARLINK-1439

Hit Count: updated at: Sat, 08 Aug 2020 00:34:02 GMT